Overview Statistics Trail Chart Weather Telemetry Raw packets
 

This is the latest recevied weather packets stored in our database for station/object NT9G. If no packets are shown the sender has not sent any weather packets the latest 10 day(s).

<< 80 81 82 83 84 85 86 >>
Time Temp. Humidity Pressure Rain* Wind** Luminosity Snow
1777234383 26.11° C 32% 1013.3 hPa 0 mm - - -
1777234083 26.11° C 30% 1013.5 hPa 0 mm - - -
1777233783 26.11° C 30% 1013.6 hPa 0 mm - - -
1777233483 26.11° C 33% 1013.8 hPa 0 mm - - -
1777233182 25.56° C 33% 1013.9 hPa 0 mm - - -
1777232882 25.56° C 32% 1013.8 hPa 0 mm - - -
1777232582 26.11° C 35% 1014.1 hPa 0 mm - - -
1777232281 25.56° C 34% 1014.3 hPa 0 mm - - -
1777231981 25.56° C 34% 1014.3 hPa 0 mm - - -
1777231681 25.56° C 36% 1014.5 hPa 0 mm - - -
1777231381 25° C 35% 1014.5 hPa 0 mm - - -
1777231080 25° C 36% 1014.5 hPa 0 mm - - -
1777230780 25.56° C 35% 1014.6 hPa 0 mm - - -
1777230480 25.56° C 36% 1014.7 hPa 0 mm - - -
1777230179 25.56° C 34% 1014.7 hPa 0 mm - - -
1777229879 25.56° C 35% 1014.7 hPa 0 mm - - -
1777229579 25.56° C 34% 1014.9 hPa 0 mm - - -
1777229279 25° C 36% 1014.9 hPa 0 mm - - -
1777228978 25° C 35% 1014.9 hPa 0 mm - - -
1777228678 25.56° C 37% 1015 hPa 0 mm - - -
1777228378 25° C 37% 1015.1 hPa 0 mm - - -
1777228077 25° C 35% 1015.2 hPa 0 mm - - -
1777227777 25° C 38% 1015.1 hPa 0 mm - - -
1777227477 24.44° C 40% 1015.2 hPa 0 mm - - -
1777227177 25° C 39% 1015.3 hPa 0 mm - - -

* Rain since midnight (hover to see other rain measurements)
** Current wind speed in m/s (hover to see current wind gust speed)